This is the latest recevied weather packets stored in our database for station/object WA0LM. If no packets are shown the sender has not sent any weather packets the latest 10 day(s).
| Time | Temp. | Humidity | Pressure | Rain* | Wind** | Luminosity | Snow |
|---|---|---|---|---|---|---|---|
| 1777855165 | 18.33° C | 37% | 1001.7 hPa | 0 mm | - | 34 W/m² | - |
| 1777854861 | 18.89° C | 37% | 1001.7 hPa | 0 mm | - | 38 W/m² | - |
| 1777854558 | 18.89° C | 37% | 1001.9 hPa | 0 mm | - | 47 W/m² | - |
| 1777854255 | 18.89° C | 36% | 1002 hPa | 0 mm | - | 57 W/m² | - |
| 1777853953 | 19.44° C | 37% | 1001.9 hPa | 0 mm | - | 67 W/m² | - |
| 1777853650 | 18.89° C | 37% | 1002 hPa | 0 mm | - | 64 W/m² | - |
| 1777853346 | 18.89° C | 35% | 1002.1 hPa | 0 mm | - | 92 W/m² | - |
| 1777853044 | 18.89° C | 40% | 1002.1 hPa | 0 mm | - | 97 W/m² | - |
| 1777852741 | 18.89° C | 34% | 1002.1 hPa | 0 mm | - | 102 W/m² | - |
| 1777852439 | 19.44° C | 34% | 1002.3 hPa | 0 mm | - | 130 W/m² | - |
| 1777852136 | 18.89° C | 35% | 1002.5 hPa | 0 mm | - | 136 W/m² | - |
| 1777851834 | 18.89° C | 39% | 1002.5 hPa | 0 mm | - | 144 W/m² | - |
| 1777851531 | 18.89° C | 35% | 1002.4 hPa | 0 mm | - | 93 W/m² | - |
| 1777851227 | 18.89° C | 38% | 1002.6 hPa | 0 mm | - | 169 W/m² | - |
| 1777850924 | 18.89° C | 38% | 1002.4 hPa | 0 mm | - | 182 W/m² | - |
| 1777850621 | 18.89° C | 37% | 1002.5 hPa | 0 mm | - | 203 W/m² | - |
| 1777850319 | 18.89° C | 33% | 1002.8 hPa | 0 mm | - | 218 W/m² | - |
| 1777850016 | 18.33° C | 39% | 1002.7 hPa | 0 mm | - | 125 W/m² | - |
| 1777849712 | 18.89° C | 34% | 1002.8 hPa | 0 mm | - | 94 W/m² | - |
| 1777849409 | 19.44° C | 35% | 1002.8 hPa | 0 mm | - | 289 W/m² | - |
| 1777849107 | 18.89° C | 38% | 1002.8 hPa | 0 mm | - | 299 W/m² | - |
| 1777848802 | 18.89° C | 35% | 1002.9 hPa | 0 mm | - | 321 W/m² | - |
| 1777848498 | 18.33° C | 36% | 1003.1 hPa | 0 mm | - | 179 W/m² | - |
| 1777848196 | 18.89° C | 35% | 1003 hPa | 0 mm | - | 197 W/m² | - |
| 1777847894 | 18.89° C | 35% | 1002.8 hPa | 0 mm | - | 190 W/m² | - |
* Rain latest hour (hover to see other rain measurements)
** Current wind speed in m/s (hover to see current wind gust speed)